Tracking 30995 objects as of 5-Jul-2025
HD Live streaming from Space Station
objects crossing your sky now

STARLINK-3858

Track STARLINK-3858 now!
10-day predictions
STARLINK-3858 is classified as:


NORAD ID: 52553
Int'l Code: 2022-051W
Perigee: 545.9 km
Apogee: 547.9 km
Inclination: 53.2 °
Period: 95.4 minutes
Semi major axis: 6917 km
RCS: Unknown
Launch date: May 13, 2022
Source: United States (US)
Launch site: AIR FORCE WESTERN TEST RANGE (AFWTR)
Your satellite tracking list
Your tracking list is empty




NASA's NSSDC Master Catalog

Two Line Element Set (TLE):
1 52553U 22051W   25186.22977827  .00000008  00000-0  18623-4 0  9998
2 52553  53.2166 159.6692 0001394  83.8628 276.2523 15.08836067174097
Source of the keplerian elements: AFSPC